Rogers, AR

3:28 AM CST on February 07, 2016 (GMT -0600)
Rogers Municipal-Carter

Weather History for KROG - July, 2014

Change the Weather History Date:

Friday, July 11, 2014

  Actual Average Record
Temperature  
Mean Temperature 78 °F -  
Max Temperature 89 °F 83 °F 100 °F (2011)
Min Temperature 68 °F 66 °F 60 °F (1996)
Cooling Degree Days 14    
Growing Degree Days 28 (Base 50)    
Moisture  
Dew Point 67 °F    
Average Humidity 68    
Maximum Humidity 90    
Minimum Humidity 48    
Precipitation  
Precipitation 0.00 in - - ()
Sea Level Pressure  
Sea Level Pressure 30.10 in    
Wind  
Wind Speed 9 mph (SSE)    
Max Wind Speed 14 mph    
Max Gust Speed 21 mph    
Visibility 10 miles    
Events      
Averages and records for this station are not official NWS values.
T = Trace of Precipitation, MM = Missing Value Source: NWS Daily Summary

Daily Weather History Graph

Daily Weather History Graph

Search for Another Location

Airport or City:

Trip Planner

Search our weather history database for the weather conditions in past years. The results will help you decide how hot, cold, wet, or windy it might be!

Date:

Astronomy

Jul. 11, 2014 Rise Set
Actual Time 6:07 AM CDT 8:35 PM CDT
Civil Twilight 5:37 AM CDT 9:05 PM CDT
Nautical Twilight 5:00 AM CDT 9:42 PM CDT
Astronomical Twilight 4:20 AM CDT 10:23 PM CDT
Moon 7:49 PM CDT (7/11) 5:18 AM CDT (7/11)
Length of Visible Light 15h 27m
Length of Day
14h 28m
Waxing Gibbous, 99% of the Moon is Illuminated
Jul 11
Waxing Gibbous
Jul 12
Full
Jul 18
Last Quarter
Jul 26
New
Aug 3
First Quarter

Hourly Weather History & Observations

Time (CDT) Temp. Heat Index Dew Point Humidity Pressure Visibility Wind Dir Wind Speed Gust Speed Precip Events Conditions
12:57 AM 69.1 °F - 66.0 °F 90% 30.09 in 10.0 mi ESE 8.1 mph - N/A   Mostly Cloudy
1:57 AM 69.1 °F - 64.9 °F 87% 30.08 in 10.0 mi ESE 9.2 mph - N/A   Mostly Cloudy
2:57 AM 69.1 °F - 64.9 °F 87% 30.08 in 10.0 mi ESE 8.1 mph - N/A   Mostly Cloudy
3:57 AM 70.0 °F - 64.0 °F 81% 30.07 in 10.0 mi ESE 10.4 mph - N/A   Overcast
4:57 AM 69.1 °F - 64.0 °F 84% 30.07 in 10.0 mi ESE 8.1 mph - N/A   Clear
5:57 AM 68.0 °F - 63.0 °F 84% 30.09 in 10.0 mi ESE 8.1 mph - N/A   Clear
6:57 AM 69.1 °F - 63.0 °F 81% 30.11 in 10.0 mi ESE 6.9 mph - N/A   Clear
7:57 AM 72.0 °F - 64.9 °F 78% 30.12 in 10.0 mi SE 8.1 mph - N/A   Clear
8:57 AM 75.9 °F - 66.9 °F 74% 30.12 in 10.0 mi SSE 9.2 mph - N/A   Clear
9:57 AM 80.1 °F 82.7 °F 68.0 °F 67% 30.13 in 10.0 mi Variable 6.9 mph - N/A   Clear
10:57 AM 82.9 °F 86.5 °F 69.1 °F 63% 30.13 in 10.0 mi WSW 9.2 mph - N/A   Partly Cloudy
11:57 AM 86.0 °F 90.7 °F 70.0 °F 59% 30.13 in 10.0 mi SW 11.5 mph - N/A   Clear
12:57 PM 87.1 °F 91.3 °F 69.1 °F 55% 30.12 in 10.0 mi SW 12.7 mph - N/A   Clear
1:57 PM 88.0 °F 92.1 °F 69.1 °F 53% 30.11 in 10.0 mi South 13.8 mph 20.7 mph N/A   Partly Cloudy
2:57 PM 89.1 °F 92.9 °F 68.0 °F 50% 30.11 in 10.0 mi SSW 10.4 mph - N/A   Clear
3:57 PM 89.1 °F 92.1 °F 66.9 °F 48% 30.10 in 10.0 mi SW 11.5 mph 19.6 mph N/A   Clear
4:57 PM 89.1 °F 92.9 °F 68.0 °F 50% 30.09 in 10.0 mi SSW 9.2 mph - N/A   Clear
5:57 PM 88.0 °F 90.7 °F 66.9 °F 49% 30.08 in 10.0 mi SW 9.2 mph - N/A   Clear
6:57 PM 87.1 °F 89.9 °F 66.9 °F 51% 30.07 in 10.0 mi SW 11.5 mph - N/A   Clear
7:57 PM 84.9 °F 87.6 °F 66.9 °F 55% 30.09 in 10.0 mi SSW 9.2 mph - N/A   Clear
8:57 PM 81.0 °F 83.8 °F 68.0 °F 65% 30.09 in 10.0 mi SSE 8.1 mph - N/A   Clear
9:57 PM 79.0 °F - 69.1 °F 72% 30.11 in 10.0 mi SE 5.8 mph - N/A   Clear
10:57 PM 75.9 °F - 69.1 °F 79% 30.11 in 10.0 mi South 6.9 mph - N/A   Clear
11:57 PM 75.9 °F - 69.1 °F 79% 30.13 in 10.0 mi SE 3.5 mph - N/A   Clear